This is the latest recevied weather packets stored in our database for station/object W0VI. If no packets are shown the sender has not sent any weather packets the latest 10 day(s).
| Time | Temp. | Humidity | Pressure | Rain* | Wind** | Luminosity | Snow |
|---|---|---|---|---|---|---|---|
| 1787788675 | 26.11° C | 53% | 1015.2 hPa | 0 mm | - | 50 W/m² | - |
| 1787788370 | 26.11° C | 53% | 1015.3 hPa | 0 mm | - | 54 W/m² | - |
| 1787788065 | 26.11° C | 53% | 1015.2 hPa | 0 mm | - | 66 W/m² | - |
| 1787787761 | 26.11° C | 53% | 1015.3 hPa | 0 mm | - | 79 W/m² | - |
| 1787787459 | 26.67° C | 53% | 1015.3 hPa | 0 mm | - | 94 W/m² | - |
| 1787787154 | 26.11° C | 53% | 1015.2 hPa | 0 mm | - | 95 W/m² | - |
| 1787786854 | 26.11° C | 53% | 1015.4 hPa | 0 mm | - | 87 W/m² | - |
| 1787786549 | 26.11° C | 52% | 1015.3 hPa | 0 mm | - | 57 W/m² | - |
| 1787786244 | 26.11° C | 52% | 1015.4 hPa | 0 mm | - | 135 W/m² | - |
| 1787785940 | 26.67° C | 51% | 1015 hPa | 0 mm | - | 158 W/m² | - |
| 1787785635 | 26.67° C | 51% | 1015.2 hPa | 0 mm | - | 159 W/m² | - |
| 1787785335 | 27.22° C | 51% | 1015.2 hPa | 0 mm | - | 180 W/m² | - |
| 1787785034 | 27.22° C | 51% | 1015.4 hPa | 0 mm | - | 179 W/m² | - |
| 1787784729 | 26.67° C | 51% | 1015.3 hPa | 0 mm | - | 213 W/m² | - |
| 1787784428 | 26.67° C | 51% | 1015.1 hPa | 0 mm | - | 220 W/m² | - |
| 1787784128 | 26.67° C | 50% | 1015.5 hPa | 0 mm | - | 81 W/m² | - |
| 1787783824 | 26.11° C | 52% | 1015.3 hPa | 0 mm | - | 226 W/m² | - |
| 1787783519 | 26.11° C | 53% | 1015.5 hPa | 0 mm | - | 108 W/m² | - |
| 1787783214 | 26.11° C | 52% | 1015.6 hPa | 0 mm | - | 252 W/m² | - |
| 1787782910 | 26.11° C | 52% | 1015.4 hPa | 0 mm | - | 85 W/m² | - |
| 1787782608 | 26.11° C | 50% | 1015.4 hPa | 0 mm | - | 113 W/m² | - |
| 1787782304 | 27.22° C | 49% | 1015.5 hPa | 0 mm | - | 285 W/m² | - |
| 1787782000 | 26.67° C | 50% | 1015.5 hPa | 0 mm | - | 305 W/m² | - |
| 1787781695 | 27.22° C | 49% | 1015.4 hPa | 0 mm | - | 224 W/m² | - |
| 1787781392 | 27.22° C | 50% | 1015.4 hPa | 0 mm | - | 286 W/m² | - |
* Rain latest hour (hover to see other rain measurements)
** Current wind speed in m/s (hover to see current wind gust speed)